Regional Weather Roundup
Issued by NWS

Home | Current Version | Previous Version | Text Only | Print | Product List | Glossary On
Versions: 1 2 3 4 5 6 7 8 9 10 11 12 13 14 15 16 17 18 19 20 21 22 23 24 25 26 27 28 29 30 31 32 33 34 35 36 37 38 39 40 41 42 43 44 45 46 47 48 49 50
000
ASUS45 KSLC 261510
RWRUT

UTAH REGIONAL WEATHER ROUNDUP
NATIONAL WEATHER SERVICE SALT LAKE CITY UT
900 AM MDT THU MAY 26 2016

UTZ001>011-023>025-261600-

NORTHERN UTAH

CITY           SKY/WX    TMP DP  RH WIND       PRES   REMARKS
BRIGHAM CITY     N/A     51  42  71 CALM      30.03R
DUGWAY         MOSUNNY   56  43  60 W2        30.04S
HILL AFB       MOSUNNY   53  41  62 E10       30.03R
LOGAN          SUNNY     48  42  80 CALM      30.06S
OGDEN          SUNNY     56  41  57 S5        30.02R
PROVO AIRPORT  MOSUNNY   54  39  58 S5        30.03S
SALT LAKE CITY MOSUNNY   58  43  57 CALM      30.02R
VERNAL         SUNNY     58  36  43 NE5       29.99F
WENDOVER       CLOUDY    59  36  41 N5        30.04S
HEBER CITY     SUNNY     46  36  66 CALM      30.04S
WEST JORDAN    SUNNY     54  45  71 N5        30.03R

$$

UTZ012>022-026-027-261600-

SOUTHERN/CENTRAL UTAH

CITY           SKY/WX    TMP DP  RH WIND       PRES   REMARKS
BLANDING       SUNNY     57  19  22 SE7       30.03S
BRYCE CANYON   MOSUNNY   40  31  70 S3        30.05S
CEDAR CITY     MOSUNNY   50  33  52 CALM      30.03R
DELTA          SUNNY     52  41  66 E3        30.03S
HANKSVILLE     MOSUNNY   64  28  25 NW10      29.92S
MILFORD        SUNNY     55  38  52 N10       30.02S
MOAB/CYNLANDS  MOSUNNY   65  29  25 CALM      29.88S
PRICE          MOSUNNY   53  29  39 N3        29.97R
ST GEORGE      SUNNY     64  34  32 SW6       29.95R

$$

REGIONAL REPORTS     COLORADO/ARIZONA

CITY           SKY/WX    TMP DP  RH WIND       PRES   REMARKS
CRAIG, CO      CLOUDY    46  33  60 NE3       30.03F
GRAND JUNCTION SUNNY     60  28  29 SE5       29.91S
RIFLE          SUNNY     52  28  39 CALM      29.96F
MONTROSE       MOSUNNY   59  25  27 SE6       29.96F
CORTEZ         SUNNY     56  28  34 E15G26    29.98S
PAGE, AZ       PTSUNNY   65  28  24 W3        29.91R
GRAND CANYON   PTSUNNY   49  28  44 SW5       30.06S
KINGMAN        SUNNY     63  29  27 SW9       29.99R
FLAGSTAFF      MOSUNNY   49  25  39 SW9       30.06S

$$

REGIONAL REPORTS    NEVADA/IDAHO/WYOMING

CITY           SKY/WX    TMP DP  RH WIND       PRES   REMARKS
LAS VEGAS, NV  MOSUNNY   68  38  33 SE6       29.91R
ELY            MOSUNNY   44  37  76 CALM      30.11S
ELKO           MOSUNNY   46  42  86 SW5       30.10S
POCATELLO, ID  MOSUNNY   53  43  68 W8        30.06F
BURLEY         SUNNY     55  42  61 MISG      30.04S
EVANSTON, WY   SUNNY     43  37  79 N6        30.09S
ROCK SPRINGS   SUNNY     45  36  70 SW5       30.06F
KEMMERER         N/A     45  34  65 SW3       30.09F

$$



USA.gov is the U.S. government's official web portal to all federal, state and local government web resources and services.